Search for airport 
image banner adimage banner ad
image banner ad

ESNA - Hallviken

Located in , Sweden

ICAO - ESNA, IATA -

Data provided by Airmate  

General information

Coordinates: N63°44'18" E15°27'32"
Elevation is 1119 feet MSL.
 
View others Airports in Jämtlande län

Operational data

Open for public use
Current time UTC:
Current local time:
Weather at : ESNZ - Are Ostersund ( 77 km )
METAR: ESNZ 230450Z 32006KT CAVOK M03/M04 Q0998
TAF: TAF ESNZ 230330Z 2304/2307 34007KT CAVOK
View NOTAMs / SUP AIP / TFR affecting this airport [VIEW]
Communications frequencies: [VIEW]

Runways:

RWY identifierQFULength (ft)Width (ft)SurfaceLDA (ft)
14328166ASPH
32328166ASPH

Airport contact information

Address: Sweden

Satellite view of ESNA